FW6924 Weather Reports


Display with metric or nautical units.
time (UTC)temp
F
wind
direction
speed
MPH
gust
MPH
rain 1hr
in
rain 24hr
in
rain mn
in
humidity
%
barometer
mb
20260906183003 91 206 5.0 14.0 0.00 0.00 0.00 69 1010.8
20260906182003 90 198 4.0 7.0 0.00 0.00 0.00 72 1011.0
20260906181002 89 239 4.0 7.0 0.00 0.00 0.00 74 1011.1
20260906175002 91 244 4.0 8.0 0.00 0.00 0.00 67 1010.8
20260906174005 91 237 5.0 10.0 0.00 0.00 0.00 67 1011.0
20260906173003 90 192 3.0 7.0 0.00 0.00 0.00 68 1011.2
20260906172005 89 202 2.0 6.0 0.00 0.00 0.00 71 1011.5
20260906171003 88 190 1.0 4.0 0.00 0.00 0.00 70 1011.7
20260906170008 84 196 2.0 4.0 0.00 0.00 0.00 73 1011.7
20260906165003 84 216 3.0 8.0 0.00 0.00 0.00 74 1012.1
20260906164005 86 202 5.0 10.0 0.00 0.00 0.00 73 1011.9
20260906163003 88 238 4.0 14.0 0.00 0.00 0.00 74 1012.0
20260906162006 90 355 2.0 5.0 0.00 0.00 0.00 66 1012.1
20260906161003 90 321 1.0 6.0 0.00 0.00 0.00 67 1012.1
20260906160007 89 202 2.0 7.0 0.00 0.00 0.00 68 1012.1
20260906155002 89 251 2.0 8.0 0.00 0.00 0.00 69 1012.1
20260906154005 89 277 2.0 7.0 0.00 0.00 0.00 70 1012.2
20260906153002 88 277 2.0 5.0 0.00 0.00 0.00 69 1012.4
20260906151002 87 232 1.0 4.0 0.00 0.00 0.00 73 1012.6
20260906150007 87 194 2.0 6.0 0.00 0.00 0.00 72 1012.5
20260906145002 87 263 2.0 7.0 0.00 0.00 0.00 74 1012.4
20260906144005 87 267 1.0 4.0 0.00 0.00 0.00 75 1012.3
20260906143002 87 111 2.0 6.0 0.00 0.00 0.00 78 1012.4
20260906141003 86 346 1.0 4.0 0.00 0.00 0.00 77 1012.8
20260906140006 85 338 0.0 4.0 0.00 0.00 0.00 80 1012.7
20260906135002 85 342 0.0 0.0 0.00 0.00 0.00 80 1012.7
20260906134004 85 163 0.0 0.0 0.00 0.00 0.00 83 1012.8
20260906133004 84 163 0.0 0.0 0.00 0.00 0.00 83 1012.8
20260906132004 83 165 0.0 0.0 0.00 0.00 0.00 85 1012.7
20260906131002 83 165 0.0 0.0 0.00 0.00 0.00 86 1012.7
20260906130006 82 166 0.0 1.0 0.00 0.00 0.00 87 1012.5
20260906125002 81 166 0.0 0.0 0.00 0.00 0.00 89 1012.4
20260906124004 80 166 0.0 1.0 0.00 0.00 0.00 90 1012.3
20260906123002 79 166 0.0 3.0 0.00 0.00 0.00 92 1012.2
20260906122004 78 167 0.0 0.0 0.00 0.00 0.00 94 1012.1
20260906121004 77 167 0.0 0.0 0.00 0.00 0.00 94 1012.0
20260906120008 76 167 0.0 0.0 0.00 0.00 0.00 95 1011.9
20260906114004 76 170 1.0 2.0 0.00 0.00 0.00 94 1011.8
20260906113002 75 171 0.0 4.0 0.00 0.00 0.00 94 1011.7
20260906112004 75 194 0.0 0.0 0.00 0.00 0.00 94 1011.5
20260906111002 75 194 0.0 0.0 0.00 0.00 0.00 94 1011.3
20260906110006 75 194 0.0 0.0 0.00 0.00 0.00 94 1011.2
20260906104004 76 194 0.0 0.0 0.00 0.00 0.00 94 1010.7
20260906103002 75 194 0.0 0.0 0.00 0.00 0.00 94 1010.6
20260906102004 75 194 0.0 0.0 0.00 0.00 0.00 94 1010.3
20260906101002 75 194 0.0 0.0 0.00 0.00 0.00 94 1010.4
20260906100006 75 194 0.0 0.0 0.00 0.00 0.00 93 1010.3
20260906095002 75 194 0.0 0.0 0.00 0.00 0.00 93 1009.9
20260906094004 75 194 0.0 0.0 0.00 0.00 0.00 93 1009.8
20260906093002 75 194 0.0 0.0 0.00 0.00 0.00 93 1009.7
20260906092004 75 194 0.0 0.0 0.00 0.00 0.00 93 1009.7
20260906091002 75 194 0.0 0.0 0.00 0.00 0.00 93 1009.7
20260906090006 75 194 0.0 0.0 0.00 0.00 0.00 93 1009.6
20260906085002 75 194 0.0 0.0 0.00 0.00 0.00 93 1009.8
20260906084004 75 194 0.0 0.0 0.00 0.00 0.00 93 1009.8
20260906083002 75 194 0.0 0.0 0.00 0.00 0.00 92 1009.7
20260906082004 75 194 0.0 0.0 0.00 0.00 0.00 92 1009.7
20260906081002 75 195 0.0 0.0 0.00 0.00 0.00 91 1009.9
20260906080007 76 195 0.0 0.0 0.00 0.00 0.00 91 1010.0
20260906075002 76 195 0.0 0.0 0.00 0.00 0.00 91 1010.1
20260906074023 76 195 0.0 0.0 0.00 0.00 0.00 90 1010.2
20260906073002 77 195 0.0 0.0 0.00 0.00 0.00 90 1010.3
20260906071002 77 195 0.0 0.0 0.00 0.00 0.00 89 1010.5
20260906070005 77 195 0.0 0.0 0.00 0.00 0.00 89 1010.4
20260906065001 77 195 0.0 0.0 0.00 0.00 0.00 89 1010.3
20260906064003 77 195 0.0 2.0 0.00 0.00 0.00 89 1010.7
20260906063002 77 194 0.0 0.0 0.00 0.00 0.00 89 1011.0
20260906061004 78 194 0.0 4.0 0.00 0.00 0.00 88 1011.2
20260906060005 78 182 0.0 0.0 0.00 0.00 0.00 88 1011.5
20260906054001 78 184 0.0 2.0 0.00 0.00 0.00 89 1011.6
20260906053001 78 184 0.0 0.0 0.00 0.00 0.00 89 1011.8
20260906051001 78 169 0.0 0.0 0.00 0.00 0.00 89 1011.9
20260906050007 78 169 0.0 0.0 0.00 0.00 0.00 89 1011.7
20260906045004 78 165 0.0 0.0 0.00 0.00 0.00 89 1011.7
20260906044004 78 165 0.0 0.0 0.00 0.00 0.00 89 1011.7
20260906043004 78 165 0.0 0.0 0.00 0.00 0.00 89 1011.6
20260906042004 78 165 0.0 0.0 0.00 0.00 0.00 88 1011.5
20260906041004 78 165 0.0 0.0 0.00 0.00 0.00 87 1011.7
20260906040008 78 165 0.0 0.0 0.00 0.00 0.00 87 1011.9
20260906035006 79 165 0.0 0.0 0.00 0.00 0.00 87 1011.8
20260906034004 79 165 0.0 0.0 0.00 0.00 0.00 86 1011.9
20260906033006 79 165 0.0 0.0 0.00 0.00 0.00 86 1012.1
20260906032004 79 162 0.0 0.0 0.00 0.00 0.00 86 1012.2
20260906031006 79 140 0.0 0.0 0.00 0.00 0.00 86 1012.2
20260906030006 79 139 0.0 0.0 0.00 0.00 0.00 86 1012.3
20260906024004 80 105 1.0 4.0 0.00 0.00 0.00 86 1012.2
20260906023004 80 94 3.0 7.0 0.00 0.00 0.00 84 1012.4
20260906021004 81 106 4.0 9.0 0.00 0.00 0.00 83 1012.7
20260906020007 82 94 4.0 10.0 0.00 0.00 0.00 82 1012.6
20260906015003 82 287 0.0 0.0 0.00 0.00 0.00 83 1012.4
20260906014005 82 287 0.0 0.0 0.00 0.00 0.00 83 1012.2
20260906013003 83 287 0.0 0.0 0.00 0.00 0.00 81 1012.1
20260906012005 83 287 0.0 0.0 0.00 0.00 0.00 82 1011.9
20260906011003 83 287 0.0 0.0 0.00 0.00 0.00 81 1011.9
20260906005003 84 287 0.0 0.0 0.00 0.00 0.00 80 1011.7
20260906004005 84 287 0.0 0.0 0.00 0.00 0.00 78 1011.8
20260906003003 85 287 0.0 2.0 0.00 0.00 0.00 78 1011.7
20260906002005 85 287 0.0 1.0 0.00 0.00 0.00 77 1011.6
20260906001003 85 287 0.0 2.0 0.00 0.00 0.00 76 1011.5
20260906000007 85 286 0.0 1.0 0.00 0.00 0.00 75 1011.4
20260905235003 86 286 1.0 3.0 0.00 0.00 0.00 74 1011.4
20260905234005 86 286 1.0 5.0 0.00 0.00 0.00 73 1011.2
20260905233003 87 285 2.0 7.0 0.00 0.00 0.00 71 1011.0
20260905232005 88 296 2.0 7.0 0.00 0.00 0.00 71 1011.0
20260905231003 88 302 2.0 8.0 0.00 0.00 0.00 71 1010.8
20260905230007 89 311 4.0 12.0 0.00 0.00 0.00 71 1011.0
20260905224005 89 284 4.0 9.0 0.00 0.00 0.00 68 1011.0
20260905222003 90 292 6.0 10.0 0.00 0.00 0.00 67 1010.8
20260905220005 90 273 5.0 12.0 0.00 0.00 0.00 66 1010.8
20260905215005 91 309 5.0 11.0 0.00 0.00 0.00 66 1010.5
20260905214003 91 296 6.0 10.0 0.00 0.00 0.00 65 1010.5
20260905213005 91 310 6.0 12.0 0.00 0.00 0.00 65 1010.6
20260905212002 91 270 6.0 10.0 0.00 0.00 0.00 65 1010.6
20260905211005 91 279 6.0 10.0 0.00 0.00 0.00 65 1010.4
20260905210005 91 284 7.0 12.0 0.00 0.00 0.00 66 1010.3
20260905205004 91 273 5.0 11.0 0.00 0.00 0.00 65 1010.3
20260905204002 91 314 2.0 7.0 0.00 0.00 0.00 69 1010.6
20260905203006 89 55 3.0 9.0 0.00 0.00 0.00 73 1010.5
20260905202002 87 155 2.0 8.0 0.00 0.00 0.00 76 1010.6
20260905201005 90 145 1.0 4.0 0.00 0.00 0.00 75 1010.8
20260905200005 89 119 1.0 4.0 0.00 0.00 0.00 74 1010.8
20260905195002 89 268 0.0 2.0 0.00 0.00 0.00 74 1010.8
20260905193003 90 265 3.0 8.0 0.00 0.00 0.00 70 1011.0
20260905192005 90 290 3.0 8.0 0.00 0.00 0.00 73 1011.3
20260905190007 90 264 2.0 6.0 0.00 0.00 0.00 71 1011.5
20260905185002 89 259 2.0 5.0 0.00 0.00 0.00 72 1011.7
20260905184002 89 200 2.0 5.0 0.00 0.00 0.00 73 1012.0